Historyczne dane pomiarowe

Dodano dane terminowe – wersja testowa.

Dane z okresu 1951-2019

Wersja bazy: 1.34 [2019-03-16, lista zmian], aktualizacja planowana na 2019-04-15

Dane meteo z obszaru Polski uzyskane na podstawie danych udostępnionych przez Instytut Meteorologii i Gospodarki Wodnej – Państwowy Instytut Badawczy.

 

Wybierz Datę:    

       

TemperaturaWilgotnośćWiatrCiśnienieOpadyŚniegCzas trwania zjawisk
 Stacja t tx tn tng RH VA  wxwx mslp ppp RRR   cm mm wxwxwxwxwxwxwx
1956-11-09 -4.4---100.0- 4.3 1.0---- 0.0------------
1956-11-08 -3.3--- 97.8- 1.3 0.3---- 0.0------------
1956-11-07 0.2--- 97.0- 8.0 2.3---- 3.0------------
1956-11-06 1.2--- 90.3- 6.0 3.3---- 5.3------------
1956-11-05 5.1--- 85.3- 8.0 3.3---- 2.2------------
1956-11-04 -1.0--- 90.5- 4.0 0.0---- 0.0------------
1956-11-03 -0.2--- 91.3- 7.0 1.3---- 0.0------------
1956-11-02 -0.1--- 85.3- 7.0 0.3---- 0.1------------
1956-11-01 -0.1--- 88.0- 2.7 1.0---- 0.0------------
1956-10-31 -3.6--- 91.0- 5.3 3.0---- 0.1------------
1956-10-30 5.3--- 94.0- 8.0 1.7---- 0.8------------
1956-10-29 3.6--- 86.8- 7.0 2.3---- 6.2------------
1956-10-28 7.2--- 81.8- 6.7 2.7---- 7.4------------
1956-10-27 8.8--- 95.8- 5.3 1.3---- 0.4------------
1956-10-26 7.6--- 94.8- 8.0 0.7---- 0.7------------
1956-10-25 8.4--- 89.5- 0.0 1.7---- 0.0------------
1956-10-24 10.2--- 86.8- 2.0 1.0---- 0.0------------
1956-10-23 9.9--- 87.5- 0.7 0.7---- 0.0------------
1956-10-22 10.7--- 87.3- 2.0 1.7---- 0.0------------
1956-10-21 11.8--- 87.5- 3.3 0.7---- 0.0------------
1956-10-20 12.2--- 96.0- 8.0 0.7---- 0.0------------
1956-10-19 11.9--- 86.8- 6.0 1.3---- 1.7------------
1956-10-18 9.5--- 87.3- 7.7 1.0---- 0.4------------
1956-10-17 5.6--- 85.0- 0.3 0.7---- 0.0------------
1956-10-16 3.9--- 81.8- 2.7 1.3---- 0.0------------
1956-10-15 5.4--- 83.8- 4.0 1.3---- 0.0------------
1956-10-14 8.0--- 87.8- 5.3 2.3---- 3.9------------
1956-10-13 9.0--- 79.0- 8.0 3.7---- 0.3------------
1956-10-12 8.4--- 74.8- 5.3 2.3---- 0.0------------
1956-10-11 3.8--- 83.5- 2.3 1.0---- 0.0------------
1956-10-10 3.9--- 80.3- 3.0 2.0---- 0.0------------
1956-10-09 6.1--- 78.8- 4.7 1.0---- 0.4------------
1956-10-08 4.5--- 91.8- 4.0 1.3---- 2.1------------
1956-10-07 5.4--- 86.5- 4.7 2.3---- 3.7------------
1956-10-06 5.2--- 95.3- 8.0 4.0---- 30.1------------
1956-10-05 11.3--- 71.5- 6.7 2.0---- 7.4------------
1956-10-04 11.6--- 95.5- 8.0 1.0---- 6.1------------
1956-10-03 16.2--- 77.3- 7.7 2.0---- 5.5------------
1956-10-02 16.4--- 74.3- 0.7 1.3---- 0.0------------
1956-10-01 14.6--- 78.8- 1.3 1.0---- 0.0------------
1956-09-30 14.1--- 87.8- 2.7 1.7---- 0.0------------
1956-09-29 16.1--- 72.8- 4.0 2.7---- 0.0------------
1956-09-28 13.6--- 84.8- 4.7 2.0---- 0.0------------
1956-09-27 16.5--- 75.5- 5.0 4.7---- 3.8------------
1956-09-26 13.0--- 76.0- 0.0 1.0---- 0.2------------
1956-09-25 12.6--- 73.0- 0.3 0.7---- 0.0------------
1956-09-24 10.4--- 75.0- 2.7 3.7---- 0.0------------
1956-09-23 13.2--- 75.8- 0.0 4.3---- 0.0------------
1956-09-22 11.9--- 82.5- 0.0 1.0---- 0.0------------
1956-09-21 11.0--- 85.5- 0.7 0.3---- 0.0------------
1956-09-20 9.8--- 81.5- 4.3 1.7---- 0.0------------
1956-09-19 7.2--- 84.0- 0.0 1.7---- 0.0------------
1956-09-18 7.0--- 88.8- 4.0 1.3---- 0.0------------
1956-09-17 9.3--- 92.3- 7.7 2.0---- 10.1------------
1956-09-16 12.9--- 88.3- 4.7 1.3---- 0.0------------
1956-09-15 12.3--- 81.8- 3.7 2.7---- 0.0------------
1956-09-14 8.6--- 92.0- 7.3 1.7---- 0.0------------
1956-09-13 8.9--- 81.5- 7.3----- 5.0------------
1956-09-12 12.2--- 83.3- 7.3----- 10.6------------
1956-09-11 16.4--- 84.5- 6.7----- 0.2------------
284.3 ms

 

Źródłem pochodzenia danych jest Instytut Meteorologii i Gospodarki Wodnej – Państwowy Instytut Badawczy. Dane Instytutu Meteorologii i Gospodarki Wodnej – Państwowego Instytutu Badawczego zostały przetworzone.

Dane źródłowe można odnaleźć na stronie https://dane.imgw.pl